Location: Guilderland
(42.7045°N, 73.9115°W)
Time: 15:16:54
(UTC+00:00)

Cosmos 2251 Rocket - Pass Details

Date: 24 January 2020
Orbit: 764 x 792 km, 74.0° (Epoch: 25 February)

Event Time Altitude Azimuth Distance (km) Brightness Sun altitude
Rises 22:44:39 0° 347° (NNW) 3,261 6.7 -8.8°
Reaches altitude 10° 22:47:15 10° 357° (N) 2,334 5.9 -9.2°
Maximum altitude 22:52:03 34° 62° (ENE) 1,281 4.2 -10.1°
Drops below altitude 10° 22:56:50 10° 126° (SE) 2,338 5.7 -10.9°
Sets 22:59:27 0° 136° (SE) 3,266 6.5 -11.4°
